Regional Weather Roundup
Issued by NWS

Home | Current Version | Previous Version | Graphics & Text | Print | Product List | Glossary On
Versions: 1 2 3 4 5 6 7 8 9 10 11 12 13 14 15 16 17 18 19 20 21 22 23 24 25 26 27 28 29 30 31 32 33 34 35 36 37 38 39 40 41 42 43 44 45 46 47 48 49 50
000
ASUS43 KLMK 280810
RWRKY
KENTUCKY REGIONAL WEATHER ROUNDUP
NATIONAL WEATHER SERVICE LOUISVILLE KY
300 AM EST SUN DEC 28 2014

NOTE "FAIR" INDICATES FEW OR NO CLOUDS BELOW 12,000 FEET
WITH NO SIGNIFICANT WEATHER AND/OR OBSTRUCTIONS TO VISIBILITY.

KYZ001>023-026-027-061>063-070>075-280900-
WESTERN AND SOUTH CENTRAL KENTUCKY

CITY           SKY/WX    TMP DP  RH WIND       PRES   REMARKS
PADUCAH        CLOUDY    38  35  89 N13       30.17R WCI  30
HENDERSON      CLOUDY    37  32  81 NW8       30.15R WCI  31
OWENSBORO      LGT RAIN  39  38  97 N9        30.14S FOG     WCI  33
HOPKINSVILLE   MIX PCPN  43  41  93 N13G18    30.09R
BOWLING GREEN  LGT RAIN  48  46  93 CALM      30.06F
GLASGOW        RAIN      47  47 100 CALM      30.06F
$$

KYZ024-025-028>034-038-045-046-053-280900-
NORTH CENTRAL KENTUCKY

CITY           SKY/WX    TMP DP  RH WIND       PRES   REMARKS
LOUISVILLE/SDF CLOUDY    44  41  89 NW13      30.08R
LOUISVILLE/LOU LGT RAIN  44  42  93 NW14      30.08R
FORT KNOX      CLOUDY    43  42  97 NW12      30.06R FOG
$$

KYZ035>037-039>044-047>052-055>060-089>105-280900-
NORTHEAST KENTUCKY

CITY           SKY/WX    TMP DP  RH WIND       PRES   REMARKS
LEXINGTON      CLOUDY    47  46  97 W6        30.05S
COVINGTON      CLOUDY    42  37  82 NW16      30.05R
FRANKFORT      LGT RAIN  47  45  93 S6        30.03F FOG
$$

KYZ054-064>069-076>088-106>120-280900-
SOUTHEAST KENTUCKY

CITY           SKY/WX    TMP DP  RH WIND       PRES   REMARKS
JACKSON        LGT RAIN  46  44  93 VRB3      30.06F VSB 3/4
LONDON         CLOUDY    46  43  89 SE3       30.07S FOG
SOMERSET       CLOUDY    45  45 100 CALM      30.09S FOG
MIDDLESBORO    RAIN      47  46  96 NE3       30.07S
MONTICELLO     FOG       48  48 100 CALM      30.10S VSB 1
$$



USA.gov is the U.S. government's official web portal to all federal, state and local government web resources and services.